Weather History for Alliance, NE

Change the Weather History Date:

Tuesday, August 27, 2013

  Actual Average Record
Temperature  
Mean Temperature 78 °F 68 °F  
Max Temperature 98 °F 84 °F 101 °F (2012)
Min Temperature 58 °F 52 °F 38 °F (2004)
Degree Days  
Heating Degree Days 0 1  
Month to date heating degree days 0 16  
Since 1 June heating degree days 70 121  
Since 1 July heating degree days 8 28  
Cooling Degree Days 13 4  
Month to date cooling degree days 211 175  
Year to date cooling degree days 607 507  
Since 1 June cooling degree days 585 497  
Growing Degree Days 30 (Base 50)    
Moisture  
Dew Point 54 °F    
Average Humidity 53    
Maximum Humidity 84    
Minimum Humidity 21    
Precipitation  
Precipitation 0.00 in 0.06 in 1.36 in (1952)
Month to date precipitation 2.34 1.49  
Year to date precipitation 9.06 12.20  
Sea Level Pressure  
Sea Level Pressure 29.88 in    
Wind  
Wind Speed 5 mph (NW)    
Max Wind Speed 20 mph    
Max Gust Speed 24 mph    
Visibility 10 miles    
Events      
T = Trace of Precipitation, MM = Missing Value Source: NWS Daily Summary

Daily Weather History Graph

Daily Weather History Graph

Search for Another Location

Airport:

Trip Planner

Search our weather history database for the weather conditions in past years. The results will help you decide how hot, cold, wet, or windy it might be!

Date:

Astronomy

Aug. 27, 2013 Rise Set
Actual Time 6:11 AM MDT 7:32 PM MDT
Civil Twilight 5:42 AM MDT 8:01 PM MDT
Nautical Twilight 5:07 AM MDT 8:36 PM MDT
Astronomical Twilight 4:30 AM MDT 9:13 PM MDT
Moon 11:19 PM MDT (8/27) 1:19 PM MDT (8/27)
Length of Visible Light 14h 18m
Length of Day
13h 20m
Waning Gibbous, 56% of the Moon is Illuminated
Aug 27
Waning Gibbous
Aug 28
Last Quarter
Sep 5
New
Sep 12
First Quarter
Sep 19
Full

Hourly Weather History & Observations

Time (MDT) Temp. Heat Index Dew Point Humidity Pressure Visibility Wind Dir Wind Speed Gust Speed Precip Events Conditions
12:53 AM 66.0 °F - 54.0 °F 65% 29.89 in 10.0 mi West 4.6 mph - N/A   Clear
1:53 AM 64.9 °F - 54.0 °F 68% 29.88 in 10.0 mi Calm Calm - N/A   Clear
2:53 AM 63.0 °F - 53.1 °F 70% 29.87 in 10.0 mi WNW 3.5 mph - N/A   Clear
3:53 AM 62.1 °F - 55.0 °F 78% 29.88 in 10.0 mi West 4.6 mph - N/A   Clear
4:53 AM 61.0 °F - 55.0 °F 81% 29.89 in 10.0 mi West 3.5 mph - N/A   Clear
5:53 AM 61.0 °F - 54.0 °F 78% 29.91 in 10.0 mi Calm Calm - N/A   Clear
6:53 AM 64.0 °F - 57.0 °F 78% 29.94 in 10.0 mi Calm Calm - N/A   Clear
7:53 AM 75.9 °F - 57.0 °F 52% 29.94 in 10.0 mi WNW 6.9 mph - N/A   Clear
8:53 AM 81.0 °F 81.0 °F 57.0 °F 44% 29.94 in 10.0 mi NW 8.1 mph - N/A   Clear
9:53 AM 88.0 °F 85.9 °F 54.0 °F 31% 29.94 in 10.0 mi North 9.2 mph - N/A   Clear
10:53 AM 91.0 °F 88.5 °F 53.1 °F 27% 29.93 in 10.0 mi North 4.6 mph - N/A   Clear
11:53 AM 93.0 °F - 52.0 °F 25% 29.91 in 10.0 mi NNE 9.2 mph 17.3 mph N/A   Clear
12:53 PM 93.9 °F - 52.0 °F 24% 29.89 in 10.0 mi Variable 3.5 mph - N/A   Clear
1:53 PM 97.0 °F - 51.1 °F 21% 29.88 in 10.0 mi WSW 8.1 mph 16.1 mph N/A   Clear
2:53 PM 97.0 °F - 51.1 °F 21% 29.86 in 10.0 mi South 6.9 mph 18.4 mph N/A   Clear
3:53 PM 98.1 °F - 52.0 °F 21% 29.85 in 10.0 mi Variable 5.8 mph - N/A   Clear
4:53 PM 97.0 °F - 52.0 °F 22% 29.84 in 10.0 mi Calm Calm - N/A   Scattered Clouds
5:53 PM 96.1 °F - 51.1 °F 22% 29.83 in 10.0 mi Variable 4.6 mph - N/A   Clear
6:53 PM 89.1 °F - 52.0 °F 28% 29.84 in 10.0 mi ESE 6.9 mph - N/A   Unknown
7:53 PM 82.0 °F - 52.0 °F 35% 29.84 in 10.0 mi Calm Calm - N/A   Clear
8:53 PM 81.0 °F 80.5 °F 54.0 °F 39% 29.85 in 10.0 mi Calm Calm - N/A   Clear
9:53 PM 81.0 °F 80.5 °F 54.0 °F 39% 29.84 in 10.0 mi NE 3.5 mph - N/A   Clear
10:53 PM 78.1 °F - 55.0 °F 45% 29.84 in 10.0 mi SE 3.5 mph - N/A   Clear
11:53 PM 81.0 °F 80.7 °F 55.0 °F 41% 29.84 in 10.0 mi North 16.1 mph 21.9 mph N/A   Mostly Cloudy